Location: Chester
(43.2628°N, 72.5951°W)
Time: 23:17:46
(UTC-04:00)

ISS - Visible Passes

Search period start: 28 March 2020 00:00
Search period end: 07 April 2020 00:00
Orbit: 417 x 423 km, 51.6° (Epoch: 29 March)

Date Brightness Start Highest point End Pass type
(mag) Time Alt. Az. Time Alt. Az. Time Alt. Az.
28 Mar -2.0 21:09:43 10° NW 21:12:33 24° NNE 21:12:34 24° NNE visible
29 Mar -1.8 20:22:21 10° NW 20:25:00 21° N 20:27:06 13° NE visible
29 Mar -0.9 21:59:00 10° NW 22:00:04 19° NW 22:00:04 19° NW visible
30 Mar -2.7 21:11:42 10° NW 21:14:36 38° N 21:14:36 38° N visible
31 Mar -2.4 20:24:24 10° NW 20:27:25 30° NNE 20:29:08 19° ENE visible
31 Mar -1.0 22:01:05 10° WNW 22:02:07 18° WNW 22:02:07 18° WNW visible
01 Apr -3.6 21:13:39 10° WNW 21:16:40 70° WNW 21:16:40 70° WNW visible
02 Apr -3.5 20:26:17 10° NW 20:29:37 58° NNE 20:31:16 26° E visible
02 Apr -0.7 22:03:39 10° W 22:04:15 13° W 22:04:15 13° W visible
03 Apr -2.5 21:15:51 10° WNW 21:18:54 32° SW 21:18:54 32° SW visible
04 Apr -3.3 20:28:17 10° WNW 20:31:35 53° SW 20:33:35 21° SSE visible
05 Apr -1.0 21:19:14 10° WSW 21:20:30 12° SW 21:21:21 11° SW visible
06 Apr -1.5 20:30:46 10° W 20:33:16 19° SW 20:35:45 10° S visible
